Location: Unspecified
(0.0000°N, 0.0000°E)
Time: 08:11:17
(UTC+02:00)

Meteor 2-8 Rocket - Visible Passes

Search period start: 25 August 2016 00:00
Search period end: 04 September 2016 00:00
Orbit: 938 x 957 km, 82.5° (Epoch: 24 August)

Date Brightness Start Highest point End Pass type
(mag) Time Alt. Az. Time Alt. Az. Time Alt. Az.
25 Aug 6.9 21:51:40 10° NW 21:55:48 19° W 21:59:57 10° SW visible
26 Aug 7.9 07:26:10 10° ESE 07:27:28 11° E 07:28:45 10° E visible
26 Aug 4.5 20:22:13 10° N 20:28:11 58° E 20:34:08 10° SSE visible
27 Aug 4.6 20:38:59 10° N 20:45:04 79° W 20:51:09 10° S visible
28 Aug 5.7 20:56:13 10° NNW 21:01:57 43° W 21:07:40 10° SSW visible
29 Aug 6.8 21:14:06 10° NW 21:18:49 24° W 21:23:33 10° SW visible
30 Aug 7.5 21:33:23 10° WNW 21:35:43 12° W 21:38:03 10° WSW visible
31 Aug 7.4 07:03:35 10° SE 07:07:23 17° E 07:11:09 10° NE visible
01 Sep 6.6 07:18:57 10° SSE 07:24:15 31° E 07:29:34 10° NNE visible
01 Sep 5.4 20:19:04 10° NNW 20:24:58 54° W 20:30:52 10° S visible
02 Sep 5.3 07:35:09 10° S 07:41:09 57° E 07:47:08 10° NNE visible
02 Sep 6.6 20:36:42 10° NW 20:41:51 29° W 20:47:01 10° SSW visible
03 Sep 7.4 20:55:14 10° WNW 20:58:44 16° W 21:02:13 10° SW visible
